When you browse on this site, cookies collect data to enhance your experience and personalize the content and advertising you see.
Visit our Privacy Policy to learn more. By continuing to use the site, you agree to this use of cookies and data.
  • In Hungary
  • List of Countries
  • For 7 days
  • Water Temperature
  • Weather Map
  • News
  • Weather Widgets
  • user-avatar
    Login

    Hourly Weather Novyy Ashit

    Today, 20 August, Tuesday

    Time Temperature Precipitation Wind Pressure Humidity
    00:00 +19°C° 0 mm 2 mps 749 mmHg 88%
    01:00 +19°C° 0 mm 2 mps 749 mmHg 90%
    02:00 +18°C° 0 mm 2 mps 749 mmHg 93%
    03:00 +19°C° 0 mm 1 mps 749 mmHg 96%
    04:00 +18°C° 0 mm 2 mps 749 mmHg 95%
    05:00 +18°C° 0 mm 2 mps 750 mmHg 95%
    06:00 +18°C° 0 mm 2 mps 750 mmHg 95%
    07:00 +20°C° 0 mm 2 mps 750 mmHg 89%
    08:00 +21°C° 0 mm 3 mps 750 mmHg 83%
    09:00 +22°C° 0 mm 3 mps 750 mmHg 77%
    10:00 +24°C° 0 mm 3 mps 750 mmHg 73%
    11:00 +25°C° 0 mm 3 mps 750 mmHg 69%
    12:00 +25°C° 0 mm 3 mps 750 mmHg 66%
    13:00 +25°C° 0 mm 3 mps 750 mmHg 66%
    14:00 +25°C° 0 mm 4 mps 750 mmHg 66%
    15:00 +25°C° 0 mm 4 mps 750 mmHg 66%
    16:00 +25°C° 0 mm 3 mps 751 mmHg 72%
    17:00 +24°C° 0 mm 3 mps 751 mmHg 77%
    18:00 +23°C° 0 mm 2 mps 751 mmHg 82%
    19:00 +20°C° 0 mm 2 mps 751 mmHg 86%
    20:00 +19°C° 0 mm 2 mps 751 mmHg 90%
    21:00 +18°C° 0 mm 2 mps 751 mmHg 94%
    22:00 +18°C° 0 mm 1 mps 751 mmHg 94%
    23:00 +18°C° 0 mm 1 mps 751 mmHg 94%

    Tomorrow, 21 August, Wednesday

    Time Temperature Precipitation Wind Pressure Humidity
    00:00 +18°C° 0 mm 1 mps 751 mmHg 94%
    01:00 +16°C° 0 mm 1 mps 751 mmHg 95%
    02:00 +16°C° 0 mm 2 mps 751 mmHg 95%
    03:00 +16°C° 0 mm 2 mps 751 mmHg 95%
    04:00 +17°C° 0 mm 2 mps 751 mmHg 95%
    05:00 +17°C° 0 mm 2 mps 752 mmHg 94%
    06:00 +17°C° 0 mm 2 mps 752 mmHg 94%
    07:00 +19°C° 0 mm 2 mps 752 mmHg 88%
    08:00 +20°C° 0 mm 2 mps 752 mmHg 82%
    09:00 +23°C° 0 mm 2 mps 752 mmHg 76%
    10:00 +24°C° 0 mm 2 mps 752 mmHg 73%
    11:00 +24°C° 0 mm 2 mps 752 mmHg 71%
    12:00 +25°C° 0 mm 2 mps 752 mmHg 68%
    13:00 +25°C° 0 mm 2 mps 752 mmHg 68%
    14:00 +25°C° 0 mm 2 mps 752 mmHg 67%
    15:00 +26°C° 0 mm 2 mps 752 mmHg 67%
    16:00 +25°C° 0 mm 2 mps 752 mmHg 71%
    17:00 +24°C° 0 mm 1 mps 752 mmHg 75%
    18:00 +23°C° 0 mm 1 mps 752 mmHg 80%
    19:00 +22°C° 0 mm 1 mps 752 mmHg 83%
    20:00 +19°C° 0 mm 0 mps 752 mmHg 86%
    21:00 +18°C° 0 mm 0 mps 752 mmHg 89%
    22:00 +17°C° 0 mm 0 mps 752 mmHg 90%
    23:00 +19°C° 0 mm 1 mps 752 mmHg 91%

    Day after tomorrow, 22 August, Thursday

    Time Temperature Precipitation Wind Pressure Humidity
    00:00 +19°C° 0 mm 1 mps 752 mmHg 93%
    01:00 +18°C° 0 mm 1 mps 752 mmHg 93%
    02:00 +18°C° 0 mm 1 mps 753 mmHg 94%
    03:00 +17°C° 0 mm 2 mps 753 mmHg 94%
    04:00 +17°C° 0 mm 2 mps 752 mmHg 94%
    05:00 +19°C° 0 mm 1 mps 752 mmHg 93%
    06:00 +19°C° 0 mm 1 mps 752 mmHg 93%
    07:00 +20°C° 0 mm 2 mps 752 mmHg 87%
    08:00 +21°C° 0 mm 2 mps 752 mmHg 82%
    09:00 +24°C° 0 mm 2 mps 752 mmHg 77%
    10:00 +25°C° 0 mm 2 mps 752 mmHg 74%
    11:00 +26°C° 0 mm 2 mps 752 mmHg 70%
    12:00 +26°C° 0 mm 3 mps 751 mmHg 67%
    13:00 +27°C° 0.1 mm 3 mps 751 mmHg 68%
    14:00 +27°C° 0.1 mm 3 mps 751 mmHg 69%
    15:00 +27°C° 0.1 mm 4 mps 751 mmHg 70%
    16:00 +26°C° 0.3 mm 3 mps 751 mmHg 75%
    17:00 +25°C° 0.3 mm 3 mps 750 mmHg 81%
    18:00 +24°C° 0.3 mm 3 mps 750 mmHg 86%
    19:00 +22°C° 0 mm 3 mps 750 mmHg 88%
    20:00 +21°C° 0 mm 3 mps 750 mmHg 91%
    21:00 +20°C° 0 mm 3 mps 750 mmHg 93%
    22:00 +19°C° 0.1 mm 3 mps 750 mmHg 93%
    23:00 +19°C° 0.1 mm 3 mps 750 mmHg 93%

    23 August, Friday

    Time Temperature Precipitation Wind Pressure Humidity
    00:00 +19°C° 0.1 mm 3 mps 749 mmHg 94%
    01:00 +19°C° 0.3 mm 3 mps 750 mmHg 94%
    02:00 +18°C° 0.3 mm 3 mps 750 mmHg 95%
    03:00 +18°C° 0.3 mm 3 mps 750 mmHg 96%
    04:00 +18°C° 0.4 mm 3 mps 750 mmHg 96%
    05:00 +17°C° 0.4 mm 4 mps 750 mmHg 95%
    06:00 +17°C° 0.4 mm 4 mps 751 mmHg 94%
    07:00 +17°C° 0 mm 4 mps 751 mmHg 90%
    08:00 +17°C° 0 mm 4 mps 751 mmHg 86%
    09:00 +17°C° 0 mm 3 mps 752 mmHg 82%
    10:00 +19°C° 0 mm 3 mps 752 mmHg 75%
    11:00 +20°C° 0 mm 3 mps 752 mmHg 69%
    12:00 +21°C° 0 mm 3 mps 752 mmHg 62%
    13:00 +21°C° 0 mm 3 mps 752 mmHg 61%
    14:00 +21°C° 0 mm 3 mps 752 mmHg 60%
    15:00 +21°C° 0 mm 4 mps 752 mmHg 59%
    16:00 +20°C° 0 mm 3 mps 752 mmHg 64%
    17:00 +19°C° 0 mm 3 mps 752 mmHg 69%
    18:00 +18°C° 0 mm 2 mps 752 mmHg 75%
    19:00 +17°C° 0 mm 2 mps 752 mmHg 77%
    20:00 +16°C° 0 mm 2 mps 752 mmHg 80%
    21:00 +15°C° 0 mm 1 mps 752 mmHg 82%
    22:00 +14°C° 0 mm 1 mps 752 mmHg 83%
    23:00 +14°C° 0 mm 1 mps 753 mmHg 84%

    24 August, Saturday

    Time Temperature Precipitation Wind Pressure Humidity
    00:00 +14°C° 0 mm 1 mps 753 mmHg 85%
    01:00 +13°C° 0 mm 1 mps 752 mmHg 86%
    02:00 +13°C° 0 mm 1 mps 752 mmHg 88%
    03:00 +13°C° 0 mm 1 mps 752 mmHg 89%
    04:00 +13°C° 0 mm 1 mps 752 mmHg 88%
    05:00 +14°C° 0 mm 1 mps 752 mmHg 87%
    06:00 +14°C° 0 mm 1 mps 752 mmHg 86%
    07:00 +16°C° 0 mm 1 mps 752 mmHg 80%
    08:00 +18°C° 0 mm 1 mps 752 mmHg 74%
    09:00 +19°C° 0 mm 2 mps 752 mmHg 68%
    10:00 +20°C° 0 mm 2 mps 752 mmHg 64%
    11:00 +21°C° 0 mm 3 mps 752 mmHg 60%
    12:00 +21°C° 0 mm 3 mps 752 mmHg 56%
    13:00 +21°C° 0.1 mm 3 mps 752 mmHg 56%
    14:00 +21°C° 0.1 mm 4 mps 752 mmHg 56%
    15:00 +21°C° 0.1 mm 4 mps 751 mmHg 56%
    16:00 +20°C° 0 mm 4 mps 751 mmHg 63%
    17:00 +19°C° 0 mm 3 mps 751 mmHg 69%
    18:00 +18°C° 0 mm 2 mps 751 mmHg 75%
    19:00 +17°C° 0 mm 2 mps 751 mmHg 79%
    20:00 +15°C° 0 mm 2 mps 751 mmHg 83%
    21:00 +14°C° 0 mm 2 mps 751 mmHg 86%
    22:00 +14°C° 0 mm 2 mps 752 mmHg 87%
    23:00 +14°C° 0 mm 2 mps 752 mmHg 89%

    25 August, Sunday

    Time Temperature Precipitation Wind Pressure Humidity
    00:00 +13°C° 0 mm 2 mps 752 mmHg 90%
    01:00 +13°C° 0 mm 2 mps 752 mmHg 90%
    02:00 +13°C° 0 mm 2 mps 751 mmHg 91%
    03:00 +12°C° 0 mm 2 mps 751 mmHg 92%
    04:00 +13°C° 0 mm 2 mps 751 mmHg 91%
    05:00 +13°C° 0 mm 2 mps 751 mmHg 89%
    06:00 +14°C° 0 mm 2 mps 751 mmHg 88%
    07:00 +14°C° 0 mm 3 mps 751 mmHg 83%
    08:00 +16°C° 0 mm 3 mps 751 mmHg 78%
    09:00 +18°C° 0 mm 3 mps 751 mmHg 74%
    10:00 +19°C° 0 mm 4 mps 750 mmHg 70%
    11:00 +20°C° 0 mm 4 mps 750 mmHg 66%
    12:00 +21°C° 0 mm 5 mps 750 mmHg 62%
    13:00 +21°C° 0 mm 5 mps 749 mmHg 62%
    14:00 +21°C° 0 mm 5 mps 749 mmHg 62%
    15:00 +21°C° 0 mm 5 mps 748 mmHg 62%
    16:00 +20°C° 0 mm 5 mps 748 mmHg 66%
    17:00 +19°C° 0 mm 4 mps 747 mmHg 71%
    18:00 +19°C° 0 mm 4 mps 747 mmHg 75%
    19:00 +18°C° 0.2 mm 4 mps 746 mmHg 79%
    20:00 +17°C° 0.2 mm 4 mps 746 mmHg 84%
    21:00 +15°C° 0.2 mm 4 mps 746 mmHg 88%
    22:00 +15°C° 0.1 mm 4 mps 745 mmHg 89%
    23:00 +14°C° 0.1 mm 4 mps 745 mmHg 91%
    Show more